Terminal Aerodrome Forecast
Issued by NWS

Home | Current Version | Previous Version | Graphics & Text | Print | Product List | Glossary On
Versions: 1 2 3 4 5 6 7 8 9 10 11 12 13 14 15 16 17 18 19 20 21 22 23 24 25 26 27 28 29 30 31 32 33 34 35 36 37 38 39 40 41 42 43 44 45 46 47 48 49 50
000
FTUS43 KLOT 172206 AAB
TAFGYY
TAF AMD
KGYY 172206Z 1722/1818 08008KT P6SM FEW070 BKN090
     FM180200 21004KT P6SM SCT060
     FM181200 01005KT P6SM SCT040 BKN080
     FM181400 02012G17KT P6SM BKN060=

USA.gov is the U.S. government's official web portal to all federal, state and local government web resources and services.